Location: Unspecified
(33.6682°S, 0.0000°E)
Time: 07:13:06
(UTC+00:00)

Vanguard 2 Rocket - Pass Details

Date: 18 June 2019
Orbit: 554 x 3326 km, 32.9° (Epoch: 19 July)

Event Time Altitude Azimuth Distance (km) Brightness Sun altitude
Rises 10:49:35 0° 290° (WNW) 5,865 11.0 30.4°
Reaches altitude 10° 10:54:09 10° 291° (WNW) 4,407 10.5 30.7°
Maximum altitude 11:04:57 71° 12° (NNE) 1,299 8.6 31.4°
Drops below altitude 10° 11:10:59 10° 95° (E) 2,543 9.4 31.7°
Sets 11:12:59 0° 97° (E) 3,278 9.8 31.8°
